Location: Charlottesville
(38.0290°N, 78.4770°W)
Time: 08:53:38
(UTC-04:00)

Tiangong 1 - Pass Details

Date: 11 October 2017
Orbit: 294 x 320 km, 42.8° (Epoch: 18 October)

Event Time Altitude Azimuth Distance (km) Brightness Sun altitude
Rises 19:31:22 0° 288° (WNW) 2,042 6.3 -10.6°
Reaches altitude 10° 19:33:31 10° 301° (WNW) 1,206 4.6 -11.0°
Maximum altitude 19:35:54 28° 3° (N) 627 2.1 -11.5°
Enters shadow 19:37:19 18° 52° (NE) 865 2.4 -11.8°
